Historical Weather Data

Soule Park Golf Course
1033 East Ojai Ave
Ojai, CA 93023
Date ET
(Inches)
Rain
(Inches)
Temp °F
Humidity
Avg
Wind MPH
Avg
Solar Wm2
Avg
High Ave Low
3/1/18 0.09 0.26 61.3 48.6 35.1 74 2.0 184
3/2/18 0.05 1.19 59.8 52.6 46.7 88 1.8 97
3/3/18 0.08 0.08 57.8 48.9 37.5 83 2.8 179
3/4/18 0.12 0.00 61.1 46.2 32.5 69 2.3 243
3/5/18 0.15 0.00 72.1 51.9 33.6 51 2.3 253
3/6/18 0.17 0.00 76.6 55.5 36.3 42 2.6 256
3/7/18 0.08 0.00 71.9 54.4 40.2 52 1.5 107
3/8/18 0.15 0.00 78.8 57.0 39.0 56 1.9 238
3/9/18 0.12 0.00 72.4 58.0 44.1 70 2.4 213
3/10/18 0.03 1.10 60.5 54.8 52.3 93 0.9 45
3/11/18 0.05 0.01 66.2 57.9 53.0 92 0.8 80
3/12/18 0.10 0.01 70.9 59.4 50.2 87 2.1 167
3/13/18 0.03 0.45 62.1 57.4 54.0 95 0.9 59
3/14/18 0.12 0.29 62.5 54.5 47.6 82 2.7 222
3/15/18 0.14 0.15 63.2 52.6 43.2 75 2.1 263
3/16/18 0.05 0.09 56.2 48.3 38.9 88 1.3 99
3/17/18 0.10 0.01 59.2 48.1 37.7 81 2.6 210
3/18/18 0.12 0.00 61.7 48.5 33.8 72 2.3 234
3/19/18 0.15 0.00 71.3 54.1 36.8 58 2.3 248
3/20/18 0.06 0.11 68.2 55.5 45.1 70 1.2 93
3/21/18 0.02 1.66 57.6 54.2 51.6 97 0.7 33
3/22/18 0.02 2.13 57.8 55.9 52.8 97 0.8 35
3/23/18 0.13 0.00 67.2 56.2 46.3 84 1.7 238
3/24/18 0.10 0.00 62.1 51.2 40.5 81 2.1 197
3/25/18 0.15 0.00 65.4 51.0 36.6 59 2.3 281
3/26/18 0.17 0.00 67.3 55.6 42.2 39 3.4 283
3/27/18 0.18 0.00 71.9 56.9 38.7 43 2.8 290
3/28/18 0.19 0.00 79.9 60.9 42.7 53 2.5 287
3/29/18 0.18 0.00 80.0 61.0 43.1 63 2.2 285
3/30/18 0.18 0.00 82.7 63.2 45.3 65 1.9 278
3/31/18 0.17 0.00 80.1 61.1 47.5 71 2.1 268